RH
4 4 5 5 7 9 10 10 8 8 7 6 6 7 6 6 5 7 7 13 24 23 17 21 20 21 28 29 28 27 30 31 37 41 43 50 52 50 48 49 51 50 54 52 49 50 50 52 49 48 47 45 43 42 41 39 40 42 42 41 35 31 33 33 33 32 31 31 32 34 37 40 41 42 43 43 43 41 41 42 38 35 35 37 35 33 37 42 39 35 32 26 26 28 27 26 22
4 5 6 6 7 10 10 8 7 8 7 7 7 7 7 6 4 6 8 12 23 25 21 21 23 26 28 29 28 27 29 33 40 43 49 54 52 51 47 49 50 50 55 51 51 53 53 55 51 48 48 46 45 43 41 41 42 43 42 41 39 36 36 36 34 34 35 35 35 37 39 41 42 42 42 44 46 44 41 43 40 32 30 33 33 30 31 38 38 34 34 28 27 30 30 31 29
6 7 8 8 8 10 9 7 7 7 7 7 7 8 8 7 8 11 11 12 21 26 25 25 27 28 28 31 30 30 33 34 40 45 49 49 49 48 46 49 48 50 55 50 52 56 57 58 53 50 48 47 46 44 42 43 43 42 42 40 41 40 40 39 36 36 37 38 38 39 39 40 42 41 41 43 45 43 42 45 45 39 34 32 32 31 29 34 38 37 37 31 28 31 31 31 31
7 8 9 10 9 8 9 9 8 7 8 7 8 14 13 12 14 13 11 13 21 27 29 30 30 30 32 38 35 35 38 39 44 47 46 45 47 48 48 49 48 52 55 52 54 57 58 59 55 51 49 48 47 45 42 43 43 42 41 41 41 41 41 41 39 36 37 38 39 39 39 40 42 43 42 41 43 45 47 47 47 46 42 39 36 34 32 37 43 45 43 34 28 30 29 26 25
9 10 10 11 11 10 11 11 9 7 9 6 9 19 20 19 16 11 11 15 20 27 31 32 34 34 34 38 38 39 43 45 45 44 44 44 47 49 49 50 50 51 52 53 55 57 60 59 58 55 51 49 48 46 43 43 44 43 41 40 41 40 40 41 40 38 38 39 39 40 40 41 44 45 43 43 45 47 51 51 48 45 44 47 47 41 37 37 41 47 47 38 29 28 25 22 20
10 11 10 11 11 11 10 10 9 8 8 7 10 20 23 20 15 12 14 15 18 26 31 35 38 36 34 36 39 42 43 45 43 43 46 46 48 51 51 52 52 49 49 54 55 56 59 58 58 58 54 50 49 46 42 42 43 43 41 40 41 41 41 41 41 39 38 39 39 40 42 43 44 45 44 45 47 49 55 57 54 46 41 46 53 54 46 38 37 41 47 42 32 28 23 20 19
11 12 11 10 10 9 10 10 10 9 8 8 11 18 24 21 17 18 17 17 18 24 33 37 36 37 38 38 40 43 44 43 41 44 48 48 51 55 53 53 53 49 48 52 55 55 56 56 57 57 56 53 51 48 44 43 43 43 43 42 41 41 42 41 40 38 37 38 39 40 41 42 42 44 46 46 47 49 55 58 58 52 43 43 49 58 54 43 36 35 43 43 33 27 23 21 23
11 11 10 10 11 10 10 10 10 10 9 8 10 14 20 20 20 23 22 22 23 26 35 37 34 39 42 39 41 46 45 45 43 46 50 50 54 56 54 56 55 51 50 51 53 54 54 54 54 54 56 53 52 51 48 47 47 46 46 44 43 43 43 41 39 37 37 37 38 40 41 42 43 44 44 46 47 48 53 56 58 57 51 47 45 52 57 49 38 32 36 40 34 26 24 25 26
11 12 10 9 12 11 10 10 10 10 9 8 9 11 13 15 17 22 23 24 26 31 38 37 35 39 41 39 42 46 46 46 46 47 49 50 55 56 55 56 56 51 52 52 52 53 53 53 53 55 55 51 52 51 49 48 49 49 46 46 46 44 42 40 39 38 35 34 36 39 42 44 44 43 44 47 46 47 54 56 56 57 55 54 48 47 55 55 47 38 34 35 33 26 23 25 24
10 11 11 10 11 11 9 10 10 10 9 8 10 10 11 13 15 18 19 22 25 33 38 34 34 37 39 41 44 47 47 46 46 46 48 50 54 55 54 55 55 53 54 54 52 51 53 53 54 55 54 51 52 51 48 47 46 47 45 46 46 43 41 40 39 36 32 32 34 37 42 46 46 44 47 47 45 46 53 56 58 58 56 57 53 45 50 59 56 45 36 32 30 27 25 24 21
11 10 10 11 10 10 10 11 11 9 9 8 9 9 10 11 15 16 17 18 21 31 35 33 35 36 37 40 43 46 46 44 44 46 46 50 52 53 54 54 55 56 57 56 53 51 52 52 52 54 52 51 53 51 49 46 44 44 43 42 42 41 40 39 38 35 33 33 34 36 40 46 46 44 47 47 45 46 49 55 57 58 57 60 59 47 45 60 63 49 39 33 30 29 25 22 22
13 12 10 11 11 11 11 11 10 9 9 8 8 10 10 9 13 17 16 17 20 27 32 34 37 37 38 38 41 44 43 43 44 46 48 49 50 50 52 54 56 57 57 56 53 50 51 51 50 50 50 51 52 51 49 46 43 43 42 41 40 40 40 38 37 36 34 35 37 38 38 43 44 44 48 46 44 43 44 49 51 53 56 62 64 51 43 53 62 54 43 34 31 30 23 19 22
13 14 11 11 11 12 11 10 10 9 9 9 9 11 10 8 11 15 16 17 19 26 31 34 35 38 43 39 42 45 41 42 43 45 49 49 50 49 51 54 56 58 58 56 52 50 50 51 50 49 49 49 49 50 49 46 44 43 41 42 41 40 39 38 40 39 35 37 37 36 37 40 42 46 50 49 47 44 41 44 47 50 53 61 62 53 48 48 53 56 49 37 33 32 26 19 20
13 14 12 12 12 12 11 11 11 10 10 11 11 11 10 9 10 13 15 16 18 25 31 35 35 40 44 38 41 47 42 41 43 45 46 47 47 47 50 52 55 57 58 57 53 49 50 51 50 50 50 50 50 48 47 45 45 44 43 42 42 41 41 40 41 38 33 36 37 35 38 41 44 47 50 51 51 49 46 47 48 50 54 60 58 52 52 49 48 56 53 38 32 33 28 22 19
14 13 13 14 13 12 12 12 11 11 13 13 12 12 11 11 11 12 14 16 18 25 33 37 37 40 41 38 39 46 45 40 43 45 45 46 44 45 48 50 54 57 58 56 51 47 49 50 48 48 47 48 49 47 47 45 44 46 47 46 44 44 43 41 38 33 30 34 37 36 36 40 46 51 54 55 55 54 50 52 53 52 54 59 58 51 50 49 46 50 52 39 30 32 28 23 21
13 13 14 14 13 13 13 13 11 12 15 13 12 13 12 13 13 12 14 16 19 24 31 37 38 38 38 39 42 47 49 42 43 45 44 45 44 45 46 48 52 55 54 52 52 50 48 46 43 43 42 43 47 48 48 45 43 46 49 51 50 49 45 42 36 32 31 33 36 38 42 46 50 54 59 63 63 60 53 53 57 55 53 54 58 55 48 51 51 47 50 44 32 32 29 23 22
13 14 15 15 14 14 14 13 12 14 16 13 13 14 13 15 16 14 15 16 20 22 26 36 40 38 38 42 45 50 51 46 47 45 44 45 45 46 46 47 49 49 47 47 50 48 44 41 38 37 36 39 43 47 48 45 45 45 47 52 53 53 50 45 38 34 35 35 35 41 49 54 55 57 64 67 66 65 59 55 56 56 54 52 57 60 52 50 54 52 51 45 35 31 28 25 22
13 15 16 15 15 15 14 13 14 15 15 14 14 15 14 16 18 17 15 14 19 21 24 35 40 39 41 43 44 49 50 47 49 47 45 44 44 46 45 47 46 42 40 40 43 41 40 41 39 38 36 35 37 42 46 46 47 45 46 49 50 52 51 47 40 37 40 37 34 40 46 49 52 58 67 67 63 66 66 63 62 61 60 56 56 61 60 53 51 56 56 47 38 31 26 28 24
14 16 16 15 15 15 15 14 15 15 15 15 14 15 15 17 20 20 19 16 17 20 22 30 35 38 43 43 44 49 49 48 49 48 46 44 46 44 42 43 42 39 35 36 40 39 40 40 39 41 39 35 33 35 39 43 45 43 44 43 43 46 46 43 40 40 43 42 41 43 42 43 48 53 58 57 56 61 63 66 69 68 67 62 57 58 59 55 52 57 59 52 43 34 27 29 30
14 16 15 15 15 15 15 14 15 16 15 15 15 15 16 18 21 21 23 22 17 19 23 25 27 33 41 43 46 51 52 50 50 49 46 46 49 44 39 39 38 38 36 38 42 40 42 43 43 44 42 38 36 34 34 37 39 39 41 39 38 41 40 40 41 41 42 46 49 45 40 41 47 48 47 47 48 52 56 63 67 68 68 64 61 58 54 53 53 58 59 53 46 40 33 30 32
14 14 14 15 15 14 14 15 15 16 15 15 16 16 16 20 21 21 25 25 18 21 26 23 24 31 41 46 50 53 53 53 52 49 46 47 48 43 41 39 37 38 39 43 43 42 45 46 46 46 45 44 41 38 36 36 36 38 40 38 36 37 41 43 42 41 42 44 46 46 43 44 47 46 43 44 48 49 51 59 64 66 67 66 62 56 56 54 53 58 60 55 49 44 38 32 30
14 13 14 15 15 14 15 15 15 15 15 15 16 16 17 20 23 24 26 26 26 31 30 26 29 37 44 49 52 54 54 54 54 51 49 48 44 42 41 39 38 37 39 43 43 45 46 45 46 42 42 45 42 40 39 38 37 40 42 37 34 36 40 43 42 41 42 41 41 46 48 46 46 47 44 43 49 48 46 53 62 63 63 67 64 59 63 59 54 58 58 55 54 50 43 33 29
13 13 13 14 14 15 15 14 15 16 16 16 17 17 19 22 26 28 28 30 33 34 33 33 38 42 44 47 49 52 54 57 55 53 51 48 44 42 41 39 39 36 37 41 41 42 41 41 42 37 35 37 36 37 36 35 35 41 45 39 36 39 40 42 43 42 42 39 40 44 46 45 45 46 45 46 51 50 47 52 57 59 59 64 65 63 66 62 60 64 60 55 54 56 53 38 29
12 13 13 14 14 14 14 14 15 17 17 17 17 19 20 23 28 31 32 32 30 30 33 39 44 45 45 48 50 51 55 57 55 52 51 50 46 42 41 41 38 36 37 38 37 37 35 36 35 35 34 30 30 33 34 35 35 37 40 38 39 42 41 42 46 44 42 40 40 43 42 43 46 46 44 46 51 49 47 51 53 55 55 60 63 61 61 62 64 65 62 59 55 55 54 47 39
11 12 13 13 14 14 14 14 16 18 18 18 19 20 21 23 26 30 33 30 28 30 33 38 43 46 48 50 52 54 55 56 54 52 50 49 47 44 44 40 33 34 38 35 34 37 36 35 33 34 34 28 27 29 32 37 39 37 36 38 42 41 39 41 42 41 41 40 40 43 42 42 46 48 45 46 49 45 46 52 56 56 54 58 64 59 57 63 69 68 65 66 64 59 53 49 48
12 12 13 13 13 14 14 15 18 19 18 19 19 21 21 21 24 28 31 30 28 31 34 37 40 45 48 50 53 55 55 51 51 51 48 47 48 46 43 37 30 30 33 32 32 36 36 34 33 33 32 30 29 28 30 32 32 33 35 39 40 37 38 36 36 38 40 41 39 39 44 47 46 47 47 46 47 46 48 56 59 61 60 61 66 64 61 64 73 77 74 72 73 70 61 54 51
14 12 13 13 13 14 14 16 18 19 19 19 19 21 20 21 24 27 30 31 31 31 34 39 40 41 46 50 53 53 52 48 48 49 48 47 47 44 37 32 30 29 28 28 31 33 31 32 33 31 30 28 29 30 29 28 26 26 30 33 37 39 39 34 35 38 37 40 38 34 38 43 43 46 47 45 46 49 52 57 60 63 66 66 68 70 68 66 71 79 79 76 76 76 73 65 59
13 13 13 13 13 13 13 16 18 19 19 19 19 20 20 20 23 24 27 31 32 32 34 38 41 42 45 49 52 50 49 48 47 49 47 45 42 37 32 28 28 28 25 26 29 28 25 29 32 30 28 24 25 30 29 29 29 26 24 26 33 41 39 34 37 38 33 33 32 29 30 31 32 36 40 42 46 50 51 54 58 65 72 70 68 70 70 68 69 74 77 78 78 77 77 75 70
13 13 13 12 12 13 14 16 19 18 18 19 18 19 20 20 20 22 25 28 30 32 32 35 41 44 44 46 48 47 48 48 48 48 42 38 37 32 28 24 22 25 27 26 26 23 21 25 26 25 27 24 24 29 30 30 31 30 27 24 28 34 33 31 34 35 33 32 30 27 31 34 33 32 36 42 46 46 46 49 56 66 72 71 69 68 67 69 67 70 75 76 80 79 77 78 73
13 13 12 14 14 14 15 16 18 19 18 19 18 20 24 21 19 22 25 26 28 31 31 31 38 45 44 42 44 45 47 48 47 44 37 35 36 30 25 22 21 26 30 26 22 20 20 21 21 20 24 26 26 27 28 29 31 33 31 26 25 28 30 31 30 29 30 33 33 29 33 41 41 38 38 41 42 42 42 43 51 61 68 69 72 68 65 70 68 70 75 74 77 80 79 78 75
13 12 13 14 16 17 16 17 19 18 18 18 17 21 29 25 20 23 25 26 27 29 31 30 34 41 42 41 42 44 45 45 43 40 36 35 34 30 25 22 23 27 30 26 21 21 20 19 20 19 23 29 27 23 25 28 28 30 34 32 26 25 31 35 32 29 30 34 35 33 35 40 42 40 37 37 37 40 42 41 46 56 62 63 68 66 62 67 68 66 71 72 74 78 78 78 78
13 14 15 14 17 20 18 17 20 20 18 19 17 20 31 27 19 23 25 26 27 27 30 30 32 36 38 40 41 42 42 42 39 38 37 35 32 29 26 24 23 25 26 24 21 21 21 21 22 20 23 29 26 21 23 24 22 24 30 33 28 25 30 36 37 34 34 37 40 40 40 40 41 38 37 37 35 37 44 45 48 55 59 58 61 62 60 63 65 64 64 67 72 76 77 79 83
15 16 19 16 16 19 18 17 19 20 18 19 18 21 33 29 19 22 24 25 26 25 27 29 31 33 35 37 39 39 39 39 38 37 36 34 30 27 26 26 24 24 24 23 22 23 23 23 23 22 24 26 24 22 21 21 23 24 25 25 25 26 27 32 36 35 34 36 40 42 40 37 37 36 38 40 36 38 45 48 53 58 60 60 60 60 62 64 65 66 64 61 66 69 70 76 83
18 18 21 19 17 19 22 20 19 20 19 20 19 20 27 26 19 21 23 24 25 24 25 27 30 32 32 34 35 36 36 35 35 34 33 31 28 26 26 26 25 25 26 25 25 25 26 26 25 23 23 23 23 23 22 24 25 24 24 25 24 25 26 28 32 34 34 34 37 38 35 32 32 33 37 41 40 39 44 49 55 60 63 65 66 63 66 68 66 69 69 63 65 66 65 67 76
21 21 22 20 17 19 24 23 21 20 19 21 21 21 25 23 19 21 22 24 25 24 25 26 29 30 30 30 30 29 29 30 31 32 32 30 28 26 26 26 25 26 28 29 29 27 29 30 27 24 22 22 23 22 22 25 25 24 25 26 27 26 26 26 28 32 34 34 35 35 33 31 32 33 36 41 43 42 45 48 54 66 69 67 66 63 64 69 70 73 76 73 73 75 72 69 72
21 22 21 21 20 19 22 23 22 20 20 22 22 24 26 23 21 21 21 24 26 26 26 27 29 30 29 28 26 25 25 27 30 31 32 31 28 26 26 26 26 27 29 31 33 33 34 32 28 26 23 23 24 23 25 30 29 28 27 26 27 28 28 29 29 31 33 33 32 32 32 30 29 30 30 31 35 39 43 45 52 67 72 67 67 68 66 69 71 74 79 80 78 77 79 80 77
20 21 20 21 20 21 23 23 22 19 21 25 24 23 24 23 21 20 21 22 25 26 27 28 29 29 29 28 25 25 25 28 31 32 33 32 30 29 28 28 28 29 31 33 34 36 37 36 31 28 26 24 25 25 30 34 33 30 29 27 26 26 27 27 27 27 27 26 24 23 23 21 21 21 21 20 23 28 35 40 46 56 65 68 71 72 71 71 71 73 76 79 80 79 83 87 85
20 20 21 21 21 23 26 24 21 20 20 25 26 22 23 25 23 20 20 20 22 24 26 27 27 27 28 27 25 25 27 30 32 32 34 34 33 32 30 31 31 31 33 34 35 36 38 38 35 30 27 26 28 28 29 34 35 32 30 26 23 23 24 25 26 24 20 16 14 15 15 14 15 16 16 17 21 24 28 35 38 42 51 59 63 64 66 70 73 74 74 76 80 78 80 83 83
20 20 22 23 22 24 27 25 21 20 20 24 26 22 23 26 23 20 20 20 22 23 25 26 26 26 25 25 25 25 26 31 34 34 35 35 36 36 34 34 34 35 36 36 36 38 39 41 38 34 30 28 30 30 30 34 33 30 29 25 23 23 21 20 21 18 16 15 13 13 13 12 15 20 21 21 25 27 28 30 30 30 32 38 46 50 52 57 64 67 69 73 76 73 74 79 80
20 20 23 25 25 24 26 29 28 23 21 23 25 21 20 24 23 20 19 20 23 24 24 25 25 24 24 24 25 26 27 31 35 38 39 39 38 38 37 37 37 37 38 38 39 39 41 42 40 36 34 32 32 32 32 32 27 25 24 20 19 21 17 14 15 15 14 15 14 13 13 11 14 22 26 26 28 28 27 27 27 26 24 24 30 34 34 38 45 51 55 60 64 64 65 70 75
22 21 22 26 29 26 25 32 33 29 25 22 21 19 18 21 23 22 20 19 22 22 22 23 23 23 23 24 26 27 30 32 35 38 41 41 40 40 40 39 39 39 39 39 40 41 43 44 43 39 36 35 36 35 33 28 25 25 22 17 17 17 15 15 18 19 17 17 17 14 13 12 13 19 25 28 29 28 27 27 27 26 25 24 28 31 29 31 35 39 43 49 52 54 52 54 64
27 23 21 23 29 29 25 28 28 27 27 26 23 20 19 22 24 25 24 20 20 22 21 23 23 23 23 24 26 27 31 33 35 37 40 41 41 41 42 41 41 41 41 41 40 42 45 44 45 42 38 38 40 40 36 27 25 26 22 19 20 19 19 21 23 24 21 20 18 15 14 14 13 19 27 29 29 28 28 27 27 26 25 22 24 28 29 32 35 37 42 44 44 44 41 40 48
29 27 23 22 25 28 28 28 25 23 27 31 28 20 20 25 26 27 27 21 21 23 23 23 23 24 25 25 26 27 29 33 35 36 38 42 43 42 43 43 42 42 42 42 42 44 45 44 46 44 39 41 43 43 38 30 26 27 23 21 22 21 22 23 22 22 21 19 17 16 16 15 14 18 24 28 30 30 29 27 25 24 23 19 19 22 23 26 29 32 36 37 35 34 31 32 39
30 32 29 26 26 29 31 30 27 26 28 29 27 22 21 22 25 28 27 22 22 23 24 25 24 24 26 27 28 28 29 31 33 36 37 41 44 44 43 42 41 42 42 43 43 45 45 44 46 43 40 43 45 44 40 32 27 26 24 22 21 21 22 23 20 18 18 17 17 17 16 15 16 16 17 22 25 25 23 21 19 18 19 19 19 18 16 17 19 21 24 26 27 29 27 29 36
31 34 30 30 32 32 33 31 28 29 31 28 27 27 25 22 23 28 26 20 21 24 27 27 24 25 27 28 30 31 32 32 33 36 38 41 44 44 42 41 41 41 41 42 44 47 46 45 46 44 42 44 45 44 40 33 27 26 25 22 21 21 22 23 22 20 18 18 16 16 15 14 14 14 14 15 17 16 15 15 14 14 14 16 17 15 13 13 14 15 16 18 20 22 23 25 28
34 34 30 30 32 31 33 33 29 31 33 28 27 31 31 27 25 28 28 24 23 25 28 27 25 25 27 28 32 33 35 35 34 35 37 40 43 43 42 41 40 40 39 41 43 48 48 46 45 43 40 39 40 41 39 32 27 25 26 22 19 21 22 21 22 22 20 19 17 15 16 17 15 13 13 13 14 14 14 14 13 13 14 14 15 13 13 13 12 12 13 13 14 15 16 16 18
34 33 32 32 33 32 32 31 29 29 29 26 27 32 31 26 23 25 29 29 27 28 30 28 26 25 26 28 31 32 33 34 33 32 32 33 36 40 43 43 40 38 38 38 40 46 49 46 44 40 35 32 35 39 37 33 30 26 27 24 19 20 21 19 20 21 19 19 20 18 20 23 20 15 13 13 13 13 13 14 13 14 13 13 14 13 13 14 13 13 13 13 13 13 13 13 13
32 33 34 35 36 37 34 32 32 30 28 29 29 30 29 23 23 27 30 29 26 26 27 27 25 26 27 29 31 31 33 33 32 32 31 30 31 34 38 41 40 37 37 39 39 43 47 46 43 39 34 33 37 40 37 33 31 27 26 26 22 20 20 18 18 20 19 19 21 22 22 24 23 19 16 14 13 13 13 13 13 13 13 12 13 13 14 14 14 15 15 15 15 15 15 15 14
30 31 34 34 33 38 37 34 37 34 31 33 31 29 28 24 26 32 33 29 23 22 25 25 26 27 28 29 30 31 32 32 31 31 30 29 30 32 34 38 40 39 39 40 39 40 44 43 41 40 38 38 39 40 38 33 31 29 27 26 25 23 20 19 20 22 22 21 22 24 22 23 25 23 21 19 16 14 14 13 13 13 13 12 12 13 13 14 14 14 14 15 15 15 16 16 16
31 31 33 33 31 38 39 32 34 34 33 36 34 31 28 26 31 34 31 25 21 21 24 25 26 27 27 28 28 29 31 31 32 31 30 28 28 33 35 37 41 41 39 38 37 39 41 40 41 42 40 39 40 42 41 35 34 35 31 27 27 27 23 20 22 25 26 26 25 26 24 24 25 25 25 23 18 16 16 15 14 13 13 12 12 13 13 13 13 13 14 14 14 14 14 15 15
32 32 31 31 31 35 35 32 34 35 37 41 41 36 30 30 36 35 30 28 25 24 25 26 27 27 27 28 28 30 32 35 37 37 35 32 32 37 39 40 43 44 42 40 40 41 39 38 42 43 38 38 42 44 40 36 39 41 35 31 32 31 27 24 24 26 28 28 28 29 27 26 27 27 29 28 20 17 17 16 16 16 14 14 13 13 13 13 14 14 14 14 14 14 14 13 13
30 30 28 30 30 30 31 32 34 33 34 39 39 34 28 31 35 34 31 30 29 29 29 28 29 29 29 29 30 32 35 40 45 47 46 42 40 41 41 43 45 48 48 47 46 42 37 38 42 42 38 37 39 40 37 38 42 41 38 39 38 35 33 29 27 27 27 29 30 31 30 29 29 30 32 31 25 21 20 18 17 17 16 16 15 14 14 14 14 15 15 15 15 15 14 14 13
29 29 28 28 28 29 31 33 35 33 30 29 29 28 27 30 33 32 31 30 29 30 31 30 31 30 30 30 30 33 37 43 50 53 54 53 51 47 45 45 46 48 51 50 48 45 40 41 44 43 41 40 40 40 40 39 39 39 44 49 47 46 45 41 35 30 26 28 31 33 34 34 33 34 34 31 27 26 25 23 21 20 19 18 17 16 16 16 16 16 16 16 16 16 15 14 13
26 27 28 28 28 30 32 34 34 33 31 29 28 28 28 29 33 34 33 31 29 29 29 29 30 30 30 30 31 32 36 44 51 54 55 56 55 52 50 50 50 51 53 53 51 48 46 45 46 47 46 45 44 42 39 38 37 44 55 60 57 58 58 52 44 36 31 30 32 34 37 37 37 37 37 35 33 31 28 27 26 24 22 21 20 19 18 17 18 17 18 17 17 17 17 16 14
25 27 27 27 28 31 35 39 37 34 35 34 31 31 30 29 31 33 32 30 30 30 30 30 29 29 31 32 32 34 37 43 49 53 56 57 56 54 54 56 57 57 58 59 59 55 52 50 48 49 50 50 48 43 39 41 45 52 60 61 60 61 60 55 49 46 42 39 37 37 38 38 38 38 39 39 38 37 35 32 31 30 29 27 25 23 21 20 20 19 19 18 18 18 18 17 17
26 27 26 27 28 28 30 34 36 36 40 43 40 36 31 29 31 33 34 35 34 33 34 34 32 32 33 34 35 37 38 42 45 49 54 57 58 58 57 58 60 60 59 61 63 63 61 59 55 54 53 53 51 47 45 46 50 56 60 59 59 58 57 57 54 51 50 47 44 42 42 42 41 40 40 41 42 43 42 39 36 35 35 33 32 30 28 27 25 24 23 21 20 20 19 19 18
30 29 28 29 32 31 31 31 30 32 37 40 41 35 29 30 35 37 39 42 39 34 35 38 38 38 38 37 37 38 37 39 41 44 48 52 56 60 61 60 60 61 61 59 61 65 67 66 64 61 58 58 58 55 54 53 53 55 55 54 58 59 57 56 55 52 51 49 47 45 45 45 45 45 44 43 43 44 45 45 44 42 40 40 40 38 37 35 33 31 29 27 25 23 22 21 20
29 29 29 29 31 34 39 37 34 35 38 38 37 34 31 34 36 35 35 40 40 35 34 36 39 41 42 42 40 37 37 38 39 41 44 46 50 53 56 57 58 60 62 61 61 65 68 69 69 66 64 64 64 62 59 60 61 61 57 54 58 61 59 55 55 54 51 51 50 49 47 46 48 50 50 47 44 44 45 46 47 46 44 43 43 42 42 41 40 39 37 35 32 29 26 25 24